"startDT [UTC]","vpos","CH4 [ppm]","stdev(CH4) [ppm]","CO2 [ppm]","stdev(CO2) [ppm]","H2O_reported [%]","stdev(H2O_reported)","CavityPressure [torr]","CavityTemp [C]","OutletValve","CH4_dry [ppm]","CO2_dry [ppm]","DasTemp [C]","EtalonTemp [C]","WarmBoxTemp [C]","MPVPosition","T_ECpre [C]","T_EC1 [C]","T_EC2 [C]","p_inlet [hPa]","p_in [hPa]","p_out [hPa]","T_inlet [C]","RH_inlet [%]","dwpt_inlet [C]","T_vent [C]","RH_vent [%]","dwpt_vent [C]","flow_vent [l min-1]","flow_inlet [l min-1]","dwpt_sample [C]","T_room [C]"
2015-12-11 00:00:00,0.0,1.94805,0.00144,408.201,0.038,0.1455,0.0020,139.998,45.000,31321.30902,1.95068,408.918,31.102,45.071,45.000,0.00,0.09,-272.74,-272.79,-2,511,-931,16.5,5.8,-21.6,16.7,5.9,-21.3,5.73,2.10,-19.3,22.9
2015-12-11 00:01:00,0.0,1.94853,0.00103,408.206,0.031,0.1464,0.0022,139.998,45.001,31323.21271,1.95142,408.926,31.120,45.071,45.000,0.00,0.09,-272.73,-272.79,-2,511,-931,16.5,5.8,-21.5,16.7,5.9,-21.3,5.73,2.09,-19.3,23.0
2015-12-11 00:02:00,0.0,1.94725,0.00043,408.244,0.044,0.1467,0.0014,139.997,45.000,31323.68141,1.95005,408.966,31.126,45.071,45.000,0.00,0.09,-272.73,-272.80,-2,511,-931,16.5,5.9,-21.5,16.7,5.9,-21.2,5.73,2.09,-19.3,23.0
2015-12-11 00:03:00,0.0,1.94768,0.00107,408.232,0.028,0.1463,0.0018,139.997,45.000,31323.53785,1.95049,408.953,31.142,45.071,45.000,0.00,0.09,-272.73,-272.80,-2,511,-931,16.6,5.9,-21.4,16.7,5.9,-21.3,5.73,2.09,-19.4,23.0
2015-12-11 00:04:00,0.0,1.94723,0.00072,408.249,0.024,0.1466,0.0014,139.998,45.000,31324.17180,1.95006,408.971,31.131,45.070,45.000,0.00,0.09,-272.73,-272.79,-2,511,-931,16.6,5.9,-21.4,16.7,5.9,-21.3,5.73,2.12,-19.4,23.0
2015-12-11 00:05:00,0.0,1.94900,0.00074,408.267,0.037,0.1475,0.0018,140.000,45.000,31325.07853,1.95176,408.992,31.137,45.071,45.000,0.00,0.09,-272.74,-272.80,-1,511,-931,16.6,5.9,-21.4,16.7,5.9,-21.2,5.73,2.14,-19.4,23.0
2015-12-11 00:06:00,0.0,1.94995,0.00035,408.275,0.035,0.1471,0.0013,139.999,45.000,31326.16514,1.95279,409.000,31.131,45.071,45.000,0.00,0.09,-272.73,-272.80,-1,511,-931,16.6,5.9,-21.4,16.7,5.9,-21.2,5.73,2.16,-19.4,23.0
2015-12-11 00:07:00,0.0,1.95043,0.00105,408.312,0.031,0.1477,0.0016,139.997,45.000,31326.68405,1.95326,409.040,31.149,45.071,45.000,0.00,0.09,-272.74,-272.79,-2,512,-931,16.6,5.9,-21.4,16.7,6.0,-21.1,5.73,2.17,-19.4,23.0
2015-12-11 00:08:00,0.0,1.94779,0.00078,408.335,0.043,0.1477,0.0021,139.997,45.000,31325.33183,1.95073,409.064,31.170,45.071,45.000,0.00,0.09,-272.74,-272.79,-2,512,-931,16.6,5.9,-21.4,16.7,6.0,-21.1,5.73,2.17,-19.3,23.0
2015-12-11 00:09:00,0.0,1.94868,0.00108,408.329,0.036,0.1484,0.0024,140.000,45.000,31328.31561,1.95149,409.060,31.187,45.071,45.000,0.00,0.09,-272.74,-272.79,-2,512,-931,16.6,5.9,-21.3,16.7,6.0,-21.1,5.73,2.16,-19.3,23.0
2015-12-11 00:10:00,0.0,1.94996,0.00094,408.339,0.027,0.1471,0.0013,140.000,45.000,31329.10927,1.95272,409.062,31.191,45.071,45.000,0.00,0.09,-272.74,-272.79,-2,512,-931,16.6,5.9,-21.4,16.7,6.0,-21.1,5.73,2.14,-19.3,23.0
2015-12-11 00:11:00,0.0,1.94968,0.00139,408.327,0.028,0.1463,0.0016,139.998,45.000,31330.80490,1.95255,409.048,31.192,45.071,45.000,0.00,0.09,-272.74,-272.79,-2,512,-931,16.6,5.8,-21.5,16.7,5.9,-21.2,5.73,2.11,-19.3,23.0
2015-12-11 00:12:00,0.0,1.94811,0.00142,408.304,0.055,0.1465,0.0018,139.999,45.000,31329.86462,1.95098,409.026,31.188,45.071,45.000,0.00,0.09,-272.74,-272.79,-1,512,-931,16.6,5.8,-21.4,16.7,5.9,-21.2,5.73,2.09,-19.3,23.0
2015-12-11 00:13:00,0.0,1.94543,0.00051,408.204,0.042,0.1481,0.0015,139.999,45.000,31330.62162,1.94837,408.935,31.188,45.071,45.000,0.00,0.09,-272.74,-272.79,-2,512,-931,16.6,5.9,-21.4,16.7,5.9,-21.2,5.73,2.09,-19.3,23.1
2015-12-11 00:14:00,0.0,1.94496,0.00059,408.162,0.033,0.1495,0.0019,139.999,45.000,31333.26564,1.94782,408.898,31.194,45.071,45.000,0.00,0.09,-272.74,-272.79,-2,512,-931,16.6,5.9,-21.3,16.7,6.0,-21.1,5.73,2.09,-19.3,23.0
2015-12-11 00:15:00,0.0,1.94486,0.00030,408.138,0.024,0.1504,0.0016,139.999,45.001,31332.39129,1.94774,408.878,31.212,45.071,45.000,0.00,0.09,-272.74,-272.80,-2,512,-931,16.6,6.0,-21.2,16.7,6.0,-21.0,5.73,2.10,-19.3,23.1
2015-12-11 00:16:00,0.0,1.94503,0.00064,408.142,0.038,0.1506,0.0020,140.000,45.000,31334.07566,1.94789,408.884,31.235,45.071,45.000,0.00,0.09,-272.74,-272.80,-2,512,-931,16.6,6.0,-21.2,16.7,6.0,-21.0,5.73,2.12,-19.3,23.1
2015-12-11 00:17:00,0.0,1.94880,0.00174,408.210,0.036,0.1509,0.0017,140.001,45.000,31334.61126,1.95158,408.951,31.223,45.071,45.000,0.00,0.09,-272.73,-272.80,-2,512,-931,16.7,6.0,-21.1,16.7,6.1,-20.9,5.73,2.14,-19.3,23.1
2015-12-11 00:18:00,0.0,1.94825,0.00087,408.245,0.033,0.1507,0.0015,140.002,45.001,31335.16044,1.95117,408.988,31.191,45.071,45.000,0.00,0.09,-272.74,-272.79,-2,512,-931,16.6,6.0,-21.0,16.7,6.1,-20.9,5.73,2.16,-19.3,23.1
2015-12-11 00:19:00,0.0,1.94609,0.00093,408.220,0.026,0.1530,0.0013,139.998,45.001,31334.36924,1.94912,408.974,31.187,45.071,45.000,0.00,0.09,-272.74,-272.80,-2,512,-931,16.6,6.1,-21.0,16.7,6.1,-20.8,5.73,2.17,-19.3,23.1
2015-12-11 00:20:00,0.0,1.94596,0.00040,408.248,0.036,0.1525,0.0017,139.998,45.000,31335.95305,1.94889,408.997,31.189,45.071,45.000,0.00,0.09,-272.74,-272.79,-2,512,-931,16.6,6.1,-21.0,16.7,6.1,-20.8,5.73,2.16,-19.3,23.1
2015-12-11 00:21:00,0.0,1.94676,0.00070,408.334,0.050,0.1528,0.0016,139.998,45.000,31334.29354,1.94963,409.084,31.191,45.071,45.000,0.00,0.09,-272.74,-272.79,-2,512,-931,16.7,6.1,-21.0,16.7,6.1,-20.8,5.73,2.15,-19.3,23.1
2015-12-11 00:22:00,0.0,1.95038,0.00233,408.414,0.034,0.1526,0.0016,139.998,45.000,31337.17283,1.95312,409.166,31.193,45.071,45.000,0.00,0.09,-272.75,-272.80,-2,512,-931,16.7,6.1,-21.0,16.7,6.1,-20.8,5.73,2.13,-19.3,23.1
2015-12-11 00:23:00,0.0,1.95043,0.00196,408.367,0.042,0.1509,0.0016,140.001,45.000,31338.32045,1.95346,409.111,31.190,45.071,45.000,0.00,0.09,-272.74,-272.80,-2,512,-931,16.7,6.0,-21.1,16.8,6.1,-20.8,5.73,2.10,-19.3,23.1
2015-12-11 00:24:00,0.0,1.94792,0.00099,408.400,0.042,0.1514,0.0017,139.998,45.000,31336.21386,1.95092,409.146,31.193,45.071,45.000,0.00,0.09,-272.74,-272.78,-2,512,-931,16.7,6.0,-21.1,16.8,6.1,-20.9,5.73,2.08,-19.3,23.1
2015-12-11 00:25:00,0.0,1.94826,0.00077,408.377,0.029,0.1509,0.0019,139.997,45.000,31336.33556,1.95108,409.119,31.188,45.071,45.000,0.00,0.09,-272.74,-272.80,-2,512,-931,16.7,6.0,-21.1,16.8,6.1,-20.8,5.73,2.08,-19.3,23.1
2015-12-11 00:26:00,0.0,1.94995,0.00111,408.383,0.043,0.1518,0.0017,139.999,44.999,31336.73401,1.95282,409.132,31.188,45.071,45.000,0.00,0.09,-272.74,-272.80,-2,512,-931,16.7,6.0,-21.1,16.8,6.1,-20.8,5.73,2.09,-19.3,23.1
2015-12-11 00:27:00,0.0,1.94927,0.00182,408.319,0.049,0.1521,0.0019,139.999,45.000,31338.27427,1.95227,409.070,31.188,45.071,45.000,0.00,0.09,-272.74,-272.79,-2,512,-931,16.7,6.0,-21.0,16.8,6.1,-20.8,5.73,2.11,-19.3,23.1
2015-12-11 00:28:00,0.0,1.94774,0.00119,408.265,0.035,0.1525,0.0018,139.996,45.000,31338.74233,1.95063,409.015,31.196,45.071,45.000,0.00,0.09,-272.73,-272.79,-2,512,-931,16.7,6.0,-21.0,16.8,6.1,-20.8,5.73,2.13,-19.3,23.2
2015-12-11 00:29:00,0.0,1.95161,0.00163,408.315,0.019,0.1527,0.0013,140.002,45.000,31340.80056,1.95459,409.066,31.241,45.071,45.000,0.00,0.09,-272.74,-272.80,-2,512,-931,16.7,6.0,-21.0,16.8,6.1,-20.8,5.73,2.15,-19.3,23.2
2015-12-11 00:30:00,0.0,1.94744,0.00067,408.354,0.036,0.1534,0.0015,139.997,45.000,31337.68465,1.95038,409.108,31.245,45.071,45.000,0.00,0.09,-272.74,-272.79,-2,512,-931,16.7,6.0,-21.0,16.8,6.1,-20.8,5.73,2.16,-19.3,23.2
2015-12-11 00:31:00,0.0,1.94820,0.00080,408.351,0.027,0.1533,0.0016,139.998,45.000,31337.82572,1.95117,409.107,31.250,45.071,45.000,0.00,0.09,-272.74,-272.79,-2,512,-931,16.7,6.1,-21.0,16.8,6.2,-20.7,5.73,2.16,-19.3,23.2
2015-12-11 00:32:00,0.0,1.94859,0.00111,408.366,0.032,0.1535,0.0014,139.998,45.000,31338.32259,1.95147,409.122,31.252,45.071,45.000,0.00,0.09,-272.74,-272.80,-2,512,-931,16.7,6.1,-21.0,16.8,6.1,-20.7,5.73,2.16,-19.3,23.1
2015-12-11 00:33:00,0.0,1.95038,0.00131,408.391,0.029,0.1520,0.0017,139.999,45.000,31340.35876,1.95333,409.140,31.251,45.071,45.000,0.00,0.09,-272.74,-272.80,-2,512,-931,16.7,6.0,-21.0,16.8,6.1,-20.8,5.73,2.14,-19.3,23.2
2015-12-11 00:34:00,0.0,1.94902,0.00080,408.411,0.035,0.1506,0.0022,140.000,45.000,31343.04741,1.95192,409.153,31.252,45.071,45.000,0.00,0.09,-272.73,-272.79,-2,513,-931,16.7,6.0,-21.1,16.8,6.1,-20.8,5.73,2.11,-19.3,23.2
2015-12-11 00:35:00,0.0,1.94852,0.00101,408.410,0.024,0.1501,0.0015,140.000,45.001,31342.86742,1.95145,409.149,31.265,45.071,45.000,0.00,0.09,-272.74,-272.80,-2,513,-931,16.7,5.9,-21.2,16.9,6.0,-20.9,5.73,2.09,-19.2,23.2
2015-12-11 00:36:00,0.0,1.94952,0.00146,408.422,0.039,0.1499,0.0011,140.000,45.001,31346.04560,1.95241,409.161,31.257,45.071,45.000,0.00,0.09,-272.74,-272.80,-2,513,-931,16.7,5.9,-21.3,16.9,6.0,-21.0,5.73,2.08,-19.2,23.2
2015-12-11 00:37:00,0.0,1.94965,0.00084,408.411,0.044,0.1485,0.0017,140.001,45.001,31348.96139,1.95241,409.143,31.294,45.071,45.000,0.00,0.09,-272.74,-272.79,-2,513,-932,16.7,5.9,-21.3,16.9,6.0,-21.0,5.73,2.09,-19.2,23.1
2015-12-11 00:38:00,0.0,1.94971,0.00057,408.425,0.028,0.1477,0.0017,140.000,45.000,31348.11854,1.95258,409.152,31.286,45.071,45.000,0.00,0.09,-272.74,-272.79,-2,513,-931,16.8,5.8,-21.4,16.9,5.9,-21.1,5.73,2.09,-19.2,23.2
2015-12-11 00:39:00,0.0,1.94894,0.00099,408.438,0.028,0.1476,0.0017,139.998,45.000,31345.49805,1.95183,409.165,31.312,45.071,45.000,0.00,0.09,-272.74,-272.80,-2,513,-931,16.8,5.8,-21.4,16.9,5.9,-21.1,5.73,2.12,-19.2,23.2
2015-12-11 00:40:00,0.0,1.95023,0.00159,408.423,0.029,0.1483,0.0015,140.000,45.000,31345.32629,1.95295,409.154,31.335,45.071,45.000,0.00,0.09,-272.74,-272.80,-2,513,-931,16.8,5.8,-21.3,16.9,5.9,-21.1,5.73,2.13,-19.2,23.2
2015-12-11 00:41:00,0.0,1.95201,0.00135,408.456,0.038,0.1492,0.0014,139.999,45.000,31345.20147,1.95489,409.191,31.319,45.071,45.000,0.00,0.09,-272.73,-272.79,-2,513,-932,16.8,5.9,-21.2,16.9,6.0,-21.0,5.73,2.16,-19.2,23.2
2015-12-11 00:42:00,0.0,1.95363,0.00142,408.550,0.030,0.1507,0.0017,139.999,45.000,31345.56229,1.95656,409.291,31.315,45.071,45.000,0.00,0.09,-272.74,-272.79,-2,513,-931,16.8,5.9,-21.2,16.9,6.0,-21.0,5.73,2.16,-19.2,23.2
2015-12-11 00:43:00,0.0,1.95052,0.00150,408.583,0.042,0.1507,0.0014,140.002,45.000,31346.21615,1.95352,409.324,31.311,45.071,45.000,0.00,0.09,-272.74,-272.79,-2,513,-931,16.8,5.9,-21.2,16.9,6.0,-20.9,5.73,2.16,-19.2,23.2
2015-12-11 00:44:00,0.0,1.94861,0.00126,408.498,0.046,0.1506,0.0017,139.999,45.000,31346.42224,1.95157,409.243,31.313,45.071,45.000,0.00,0.09,-272.74,-272.78,-2,513,-931,16.8,5.9,-21.2,16.9,6.0,-20.9,5.73,2.15,-19.2,23.2
2015-12-11 00:45:00,0.0,1.94876,0.00090,408.425,0.028,0.1512,0.0011,139.999,45.000,31346.68932,1.95155,409.170,31.310,45.071,45.000,0.00,0.09,-272.74,-272.79,-2,513,-931,16.8,5.9,-21.2,16.9,6.0,-20.9,5.73,2.13,-19.2,23.2
2015-12-11 00:46:00,0.0,1.94876,0.00163,408.350,0.039,0.1509,0.0020,139.998,45.000,31348.65198,1.95178,409.094,31.313,45.071,45.000,0.00,0.09,-272.74,-272.80,-2,513,-931,16.8,5.9,-21.1,16.9,6.0,-20.9,5.73,2.11,-19.2,23.2
2015-12-11 00:47:00,0.0,1.94653,0.00084,408.329,0.029,0.1512,0.0016,139.999,45.000,31349.50481,1.94944,409.076,31.314,45.071,45.000,0.00,0.09,-272.74,-272.79,-2,513,-931,16.8,6.0,-21.1,16.9,6.0,-20.9,5.73,2.09,-19.2,23.2
2015-12-11 00:48:00,0.0,1.94605,0.00062,408.342,0.036,0.1514,0.0010,139.998,45.000,31349.21195,1.94892,409.088,31.355,45.071,45.000,0.00,0.09,-272.74,-272.80,-2,513,-931,16.8,6.0,-21.1,16.9,6.1,-20.8,5.73,2.09,-19.2,23.3
2015-12-11 00:49:00,0.0,1.94754,0.00124,408.372,0.035,0.1514,0.0019,139.999,45.000,31352.34768,1.95040,409.116,31.368,45.071,45.000,0.00,0.09,-272.74,-272.80,-2,513,-931,16.8,6.0,-21.1,16.9,6.1,-20.8,5.73,2.09,-19.2,23.3
2015-12-11 00:50:00,0.0,1.94929,0.00073,408.451,0.036,0.1523,0.0016,139.996,45.000,31350.72217,1.95220,409.200,31.375,45.071,45.000,0.00,0.09,-272.74,-272.80,-2,513,-931,16.8,5.9,-21.1,16.9,6.0,-20.9,5.73,2.09,-19.2,23.3
2015-12-11 00:51:00,0.0,1.94980,0.00154,408.514,0.029,0.1520,0.0016,139.999,45.000,31352.21137,1.95260,409.263,31.360,45.071,45.000,0.00,0.09,-272.73,-272.79,-2,513,-931,16.8,6.0,-21.1,16.9,6.1,-20.8,5.73,2.12,-19.2,23.3
2015-12-11 00:52:00,0.0,1.95092,0.00139,408.509,0.027,0.1524,0.0014,140.003,45.000,31354.32573,1.95393,409.259,31.328,45.071,45.000,0.00,0.09,-272.74,-272.80,-2,513,-931,16.8,6.0,-21.0,16.9,6.1,-20.8,5.73,2.14,-19.2,23.3
2015-12-11 00:53:00,0.0,1.94856,0.00113,408.445,0.055,0.1510,0.0014,139.999,45.000,31352.39366,1.95161,409.193,31.314,45.071,45.000,0.00,0.09,-272.75,-272.79,-2,513,-931,16.8,5.9,-21.1,16.9,6.0,-20.8,5.73,2.16,-19.2,23.3
2015-12-11 00:54:00,0.0,1.94745,0.00131,408.309,0.045,0.1518,0.0018,139.997,45.000,31353.19297,1.95035,409.057,31.312,45.071,45.000,0.00,0.09,-272.74,-272.79,-2,513,-931,16.8,5.9,-21.1,16.9,6.0,-20.9,5.73,2.17,-19.1,23.3
2015-12-11 00:55:00,0.0,1.94735,0.00118,408.276,0.032,0.1512,0.0018,139.998,45.000,31353.88636,1.95028,409.020,31.314,45.071,45.000,0.00,0.09,-272.74,-272.79,-2,513,-931,16.9,5.9,-21.1,16.9,6.0,-20.8,5.73,2.16,-19.1,23.3
2015-12-11 00:56:00,0.0,1.94730,0.00112,408.278,0.037,0.1522,0.0016,139.998,45.000,31352.89987,1.95020,409.028,31.346,45.071,45.000,0.00,0.09,-272.74,-272.80,-2,513,-931,16.8,5.9,-21.1,16.9,6.0,-20.8,5.73,2.15,-19.1,23.3
2015-12-11 00:57:00,0.0,1.94686,0.00112,408.253,0.029,0.1515,0.0020,139.997,45.000,31352.81081,1.94982,408.999,31.375,45.071,45.000,0.00,0.09,-272.74,-272.79,-2,513,-931,16.8,5.9,-21.1,16.9,6.0,-20.8,5.73,2.12,-19.1,23.3
2015-12-11 00:58:00,0.0,1.94586,0.00064,408.239,0.035,0.1513,0.0016,140.001,45.000,31354.22036,1.94877,408.984,31.389,45.071,45.000,0.00,0.09,-272.73,-272.79,-2,513,-931,16.8,5.9,-21.1,16.9,6.0,-20.8,5.73,2.10,-19.1,23.3
2015-12-11 00:59:00,0.0,1.94588,0.00042,408.226,0.040,0.1508,0.0021,139.999,45.000,31354.14407,1.94881,408.970,31.402,45.071,45.000,0.00,0.09,-272.74,-272.80,-2,513,-931,16.8,5.9,-21.1,17.0,6.0,-20.9,5.73,2.09,-19.1,23.3
2015-12-11 01:00:00,0.0,1.94561,0.00048,408.205,0.032,0.1519,0.0022,139.997,45.000,31353.58766,1.94850,408.953,31.425,45.071,45.000,0.00,0.09,-272.74,-272.80,-2,513,-931,16.9,5.9,-21.1,17.0,6.0,-20.9,5.73,2.08,-19.1,23.3
2015-12-11 01:01:00,0.0,1.94640,0.00052,408.209,0.020,0.1517,0.0017,140.001,45.000,31354.75715,1.94932,408.956,31.440,45.070,45.000,0.00,0.09,-272.73,-272.79,-2,513,-931,16.9,5.9,-21.1,17.0,6.0,-20.9,5.73,2.09,-19.1,23.3
2015-12-11 01:02:00,0.0,1.94637,0.00070,408.222,0.034,0.1514,0.0021,139.998,45.000,31356.72504,1.94923,408.967,31.441,45.070,45.000,0.00,0.09,-272.74,-272.80,-2,513,-931,16.9,5.9,-21.1,17.0,6.0,-20.9,5.73,2.10,-19.1,23.3
2015-12-11 01:03:00,0.0,1.94795,0.00060,408.253,0.040,0.1518,0.0011,139.998,45.000,31357.16412,1.95083,409.000,31.439,45.070,44.999,0.00,0.09,-272.75,-272.80,-2,513,-931,16.8,5.9,-21.1,17.0,6.0,-20.9,5.73,2.13,-19.1,23.3
2015-12-11 01:04:00,0.0,1.94916,0.00066,408.303,0.033,0.1502,0.0020,140.000,45.000,31357.84637,1.95206,409.042,31.435,45.070,45.000,0.00,0.09,-272.73,-272.79,-2,513,-931,16.9,5.9,-21.2,17.0,6.0,-20.9,5.73,2.15,-19.1,23.3
2015-12-11 01:05:00,0.0,1.94780,0.00070,408.330,0.030,0.1509,0.0018,140.000,45.000,31358.88493,1.95073,409.072,31.430,45.071,45.000,0.00,0.09,-272.74,-272.79,-2,513,-931,16.9,5.9,-21.2,17.0,6.0,-20.9,5.73,2.16,-19.1,23.3
2015-12-11 01:06:00,0.0,1.94960,0.00153,408.318,0.036,0.1503,0.0016,139.998,45.000,31356.62438,1.95237,409.059,31.402,45.071,45.000,0.00,0.09,-272.75,-272.80,-2,513,-931,16.9,5.9,-21.2,17.0,6.0,-20.9,5.73,2.16,-19.1,23.3
2015-12-11 01:07:00,0.0,1.95390,0.00217,408.350,0.035,0.1512,0.0015,139.996,45.000,31355.34515,1.95673,409.095,31.399,45.071,45.000,0.00,0.09,-272.74,-272.79,-2,513,-932,16.9,5.9,-21.1,17.0,6.0,-20.9,5.73,2.15,-19.1,23.3
2015-12-11 01:08:00,0.0,1.95059,0.00316,408.341,0.032,0.1509,0.0016,140.000,45.000,31357.23322,1.95365,409.084,31.430,45.071,45.000,0.00,0.09,-272.74,-272.78,-2,513,-931,16.9,5.9,-21.1,17.0,6.0,-20.9,5.73,2.14,-19.0,23.4
2015-12-11 01:09:00,0.0,1.94705,0.00052,408.330,0.043,0.1514,0.0017,139.996,45.000,31355.24097,1.95001,409.076,31.408,45.071,45.000,0.00,0.09,-272.74,-272.80,-2,514,-931,16.9,5.9,-21.1,17.0,6.0,-20.8,5.73,2.12,-19.1,23.3
2015-12-11 01:10:00,0.0,1.94680,0.00041,408.326,0.030,0.1529,0.0016,140.001,45.000,31356.92690,1.94973,409.077,31.376,45.071,45.000,0.00,0.09,-272.74,-272.79,-2,514,-931,16.9,5.9,-21.0,17.0,6.0,-20.8,5.73,2.09,-19.1,23.4
2015-12-11 01:11:00,0.0,1.94705,0.00036,408.335,0.023,0.1527,0.0019,140.000,45.000,31357.71183,1.94998,409.088,31.364,45.071,45.001,0.00,0.09,-272.73,-272.79,-2,514,-931,16.9,5.9,-21.0,17.0,6.0,-20.8,5.73,2.08,-19.0,23.4
2015-12-11 01:12:00,0.0,1.94989,0.00132,408.349,0.037,0.1517,0.0022,139.999,45.000,31356.85173,1.95268,409.097,31.367,45.071,45.000,0.00,0.09,-272.73,-272.80,-2,513,-931,16.9,5.9,-21.1,17.0,6.0,-20.8,5.73,2.09,-19.0,23.4
2015-12-11 01:13:00,0.0,1.94962,0.00051,408.379,0.028,0.1504,0.0021,139.999,45.000,31357.86354,1.95257,409.118,31.371,45.071,45.000,0.00,0.09,-272.74,-272.80,-2,513,-931,16.9,5.9,-21.1,17.0,6.0,-20.9,5.73,2.09,-19.0,23.4
2015-12-11 01:14:00,0.0,1.94931,0.00104,408.360,0.035,0.1500,0.0017,140.000,45.000,31358.43985,1.95224,409.099,31.374,45.071,45.001,0.00,0.09,-272.73,-272.80,-2,514,-931,16.9,5.9,-21.2,17.0,6.0,-20.9,5.73,2.11,-19.0,23.4
2015-12-11 01:15:00,0.0,1.94875,0.00047,408.425,0.034,0.1503,0.0017,139.998,45.000,31359.52395,1.95162,409.164,31.388,45.071,45.000,0.00,0.09,-272.73,-272.79,-2,514,-931,16.9,5.9,-21.2,17.0,5.9,-20.9,5.73,2.13,-19.0,23.4
2015-12-11 01:16:00,0.0,1.95098,0.00130,408.473,0.047,0.1494,0.0017,139.998,45.000,31361.21668,1.95383,409.209,31.431,45.071,45.000,0.00,0.09,-272.74,-272.80,-2,514,-932,17.0,5.9,-21.2,17.0,5.9,-20.9,5.73,2.16,-19.0,23.4
2015-12-11 01:17:00,0.0,1.95013,0.00097,408.497,0.030,0.1501,0.0021,140.000,45.000,31361.00407,1.95294,409.237,31.455,45.071,45.000,0.00,0.09,-272.75,-272.79,-2,514,-932,16.9,5.8,-21.2,17.0,5.9,-21.0,5.73,2.17,-19.0,23.4
2015-12-11 01:18:00,0.0,1.95033,0.00093,408.523,0.027,0.1503,0.0016,139.999,45.000,31361.12597,1.95328,409.264,31.463,45.070,45.000,0.00,0.09,-272.74,-272.79,-2,514,-931,16.9,5.9,-21.2,17.1,5.9,-20.9,5.73,2.16,-19.0,23.4
2015-12-11 01:19:00,0.0,1.94810,0.00041,408.486,0.030,0.1510,0.0016,140.000,45.000,31363.36029,1.95108,409.230,31.441,45.070,45.000,0.00,0.09,-272.75,-272.79,-2,514,-931,17.0,5.9,-21.1,17.1,6.0,-20.9,5.73,2.14,-19.0,23.4
2015-12-11 01:20:00,0.0,1.94809,0.00053,408.488,0.037,0.1510,0.0021,140.001,45.000,31364.04653,1.95100,409.233,31.438,45.071,45.000,0.00,0.28,-271.35,-272.33,-2,514,-931,17.0,5.9,-21.1,17.1,6.0,-20.9,5.43,2.15,-23.9,23.4
2015-12-11 01:21:00,0.0,1.94800,0.00037,408.462,0.031,0.1501,0.0016,140.000,45.000,31363.55088,1.95088,409.202,31.441,45.071,45.000,0.00,0.09,-272.74,-272.79,-2,514,-931,17.0,5.9,-21.2,17.1,5.9,-20.9,5.73,2.08,-19.0,23.4
2015-12-11 01:22:00,0.0,1.94810,0.00035,408.473,0.035,0.1499,0.0020,139.998,45.000,31362.60012,1.95098,409.211,31.459,45.071,45.000,0.00,0.09,-272.73,-272.80,-2,514,-931,17.0,5.9,-21.1,17.1,6.0,-20.9,5.73,2.07,-19.0,23.4
2015-12-11 01:23:00,0.0,1.94845,0.00059,408.488,0.032,0.1515,0.0019,139.997,45.000,31364.23921,1.95132,409.233,31.493,45.071,45.000,0.00,0.09,-272.73,-272.80,-2,514,-931,17.0,5.9,-21.1,17.1,5.9,-20.9,5.73,2.08,-19.0,23.4
2015-12-11 01:24:00,0.0,1.94911,0.00033,408.511,0.027,0.1513,0.0022,139.999,45.000,31363.62548,1.95203,409.256,31.494,45.071,45.000,0.00,0.09,-272.73,-272.80,-2,514,-931,17.0,5.9,-21.1,17.1,5.9,-20.9,5.73,2.11,-19.0,23.4
2015-12-11 01:25:00,0.0,1.94952,0.00048,408.528,0.027,0.1509,0.0010,139.999,45.000,31365.88038,1.95240,409.272,31.498,45.071,45.000,0.00,0.09,-272.73,-272.79,-2,514,-931,17.0,5.9,-21.1,17.1,5.9,-20.9,5.73,2.13,-19.0,23.4
2015-12-11 01:26:00,0.0,1.95098,0.00065,408.590,0.038,0.1492,0.0010,139.999,45.000,31366.92006,1.95380,409.326,31.532,45.071,45.000,0.00,0.09,-272.74,-272.80,-2,514,-931,17.0,5.8,-21.2,17.1,5.9,-20.9,5.73,2.16,-19.0,23.4
2015-12-11 01:27:00,0.0,1.95191,0.00066,408.623,0.050,0.1489,0.0015,139.999,45.000,31366.64579,1.95472,409.355,31.556,45.070,45.000,0.00,0.09,-272.74,-272.80,-2,514,-931,17.0,5.8,-21.3,17.1,5.9,-21.0,5.73,2.17,-19.0,23.4
2015-12-11 01:28:00,0.0,1.95004,0.00082,408.632,0.042,0.1479,0.0019,139.999,45.000,31367.88382,1.95302,409.363,31.555,45.070,45.000,0.00,0.09,-272.73,-272.79,-2,514,-931,17.0,5.8,-21.3,17.1,5.9,-21.0,5.73,2.16,-19.0,23.4
2015-12-11 01:29:00,0.0,1.95043,0.00077,408.645,0.034,0.1499,0.0020,140.000,45.000,31368.19928,1.95322,409.383,31.545,45.070,45.000,0.00,0.09,-272.74,-272.80,-2,514,-931,17.0,5.8,-21.2,17.1,5.9,-21.0,5.73,2.14,-19.0,23.4
2015-12-11 01:30:00,0.0,1.95180,0.00087,408.637,0.022,0.1496,0.0012,139.997,45.000,31366.22812,1.95466,409.374,31.551,45.071,45.000,0.00,0.09,-272.75,-272.80,-2,514,-931,17.0,5.8,-21.2,17.1,5.9,-21.0,5.73,2.12,-18.9,23.4
2015-12-11 01:31:00,0.0,1.95180,0.00105,408.661,0.028,0.1486,0.0021,140.000,45.000,31367.63428,1.95473,409.394,31.559,45.071,45.000,0.00,0.09,-272.74,-272.79,-2,514,-931,17.0,5.8,-21.3,17.1,5.9,-21.0,5.73,2.09,-18.9,23.4
2015-12-11 01:32:00,0.0,1.95076,0.00050,408.623,0.020,0.1476,0.0016,139.998,45.000,31368.04679,1.95361,409.351,31.568,45.071,45.000,0.00,0.09,-272.74,-272.80,-2,514,-931,17.1,5.7,-21.3,17.1,5.8,-21.1,5.73,2.07,-18.9,23.4
2015-12-11 01:33:00,0.0,1.95083,0.00051,408.645,0.027,0.1484,0.0017,139.997,45.000,31366.18535,1.95366,409.375,31.563,45.071,45.000,0.00,0.09,-272.75,-272.80,-2,514,-931,17.0,5.7,-21.3,17.1,5.8,-21.1,5.73,2.08,-18.9,23.4
2015-12-11 01:34:00,0.0,1.95105,0.00071,408.687,0.035,0.1486,0.0015,139.998,45.000,31366.93631,1.95394,409.419,31.563,45.071,45.000,0.00,0.09,-272.74,-272.80,-2,514,-931,17.0,5.7,-21.3,17.1,5.8,-21.1,5.73,2.09,-18.9,23.4
2015-12-11 01:35:00,0.0,1.95122,0.00129,408.735,0.026,0.1486,0.0014,139.998,45.000,31365.99019,1.95397,409.466,31.590,45.071,45.000,0.00,0.09,-272.73,-272.80,-2,514,-931,17.1,5.7,-21.3,17.1,5.8,-21.1,5.73,2.12,-18.9,23.4
2015-12-11 01:36:00,0.0,1.95395,0.00131,408.781,0.032,0.1465,0.0018,139.999,45.000,31365.91046,1.95682,409.503,31.624,45.071,45.000,0.00,0.09,-272.74,-272.80,-2,514,-931,17.0,5.7,-21.5,17.2,5.8,-21.2,5.73,2.14,-18.9,23.5
2015-12-11 01:37:00,0.0,1.95298,0.00056,408.785,0.033,0.1461,0.0017,140.001,45.000,31366.33660,1.95576,409.506,31.622,45.071,45.000,0.00,0.09,-272.74,-272.79,-3,514,-931,17.0,5.6,-21.6,17.2,5.7,-21.3,5.73,2.16,-18.9,23.5
2015-12-11 01:38:00,0.0,1.95157,0.00081,408.774,0.026,0.1474,0.0019,140.000,45.000,31366.54580,1.95449,409.500,31.623,45.071,45.000,0.00,0.09,-272.73,-272.79,-2,514,-931,17.1,5.7,-21.5,17.2,5.7,-21.3,5.73,2.16,-18.9,23.5
2015-12-11 01:39:00,0.0,1.95236,0.00077,408.779,0.031,0.1486,0.0013,139.996,45.000,31365.68239,1.95516,409.511,31.625,45.071,45.000,0.00,0.09,-272.74,-272.79,-2,514,-931,17.0,5.7,-21.3,17.2,5.8,-21.1,5.73,2.16,-18.9,23.5
2015-12-11 01:40:00,0.0,1.95042,0.00073,408.751,0.023,0.1492,0.0015,140.000,45.000,31368.52792,1.95338,409.488,31.625,45.071,45.000,0.00,0.09,-272.75,-272.80,-2,514,-931,17.1,5.8,-21.3,17.2,5.8,-21.1,5.73,2.13,-18.9,23.5
2015-12-11 01:41:00,0.0,1.95129,0.00049,408.755,0.026,0.1493,0.0021,139.997,45.000,31367.28077,1.95407,409.491,31.641,45.071,45.000,0.00,0.09,-272.74,-272.79,-2,514,-931,17.1,5.8,-21.3,17.2,5.8,-21.1,5.73,2.10,-18.9,23.5
2015-12-11 01:42:00,0.0,1.95536,0.00128,408.869,0.057,0.1473,0.0014,139.996,45.000,31366.83114,1.95804,409.594,31.645,45.071,45.000,0.00,0.09,-272.73,-272.80,-2,514,-931,17.1,5.7,-21.4,17.2,5.8,-21.2,5.73,2.09,-18.9,23.5
2015-12-11 01:43:00,0.0,1.95576,0.00101,408.936,0.067,0.1474,0.0023,139.997,45.000,31367.34657,1.95864,409.663,31.634,45.071,45.000,0.00,0.09,-272.74,-272.80,-2,514,-931,17.1,5.7,-21.4,17.2,5.7,-21.2,5.73,2.07,-18.9,23.5
2015-12-11 01:44:00,0.0,1.95942,0.00104,408.928,0.039,0.1464,0.0015,140.001,45.000,31369.17810,1.96222,409.649,31.629,45.071,45.000,0.00,0.09,-272.74,-272.80,-2,514,-931,17.1,5.6,-21.5,17.2,5.7,-21.2,5.73,2.05,-18.8,23.5
2015-12-11 01:45:00,0.0,1.95496,0.00159,408.930,0.032,0.1465,0.0018,139.996,45.000,31367.99733,1.95792,409.654,31.670,45.071,45.000,0.00,0.09,-272.73,-272.79,-2,514,-931,17.1,5.6,-21.5,17.2,5.7,-21.3,5.73,2.09,-18.9,23.5